User: anonymous   Login
Location: Unspecified
(0.0000°N, 0.0000°E)
Time: 07:51:21
(UTC+01:00)
Language:

CZ-4 DEB - Orbit

View from above orbital plane
View from above orbital plane
View from above satellite
View from above satellite

Ground track
Ground track

The orbit data is extracted from the following two-line orbital elements,

1 29508U 06046D   17016.80996449  .00041832  00000-0  36724-3 0  9997
2 29508  97.6161  78.4507 0001607 144.0440 216.0929 15.68725327562242
Epoch (UTC): 16 January 2017 19:26:20
Eccentricity: 0.0001607
inclination: 97.6161°
perigee height: 361 km
apogee height: 363 km
right ascension of ascending node: 78.4507°
argument of perigee: 144.0440°
revolutions per day: 15.68725327
mean anomaly at epoch: 216.0929°
orbit number at epoch: 56224

The dashed part of the orbit path shows where the satellite is in the earth's shadow,  

DLR